SCP
1 1 1 1 1 1 1 1 1 1 1 1 1 1 0 0 0 0 0 0 0 0 0 0 0 0 0 0 0 1 1 0 0 0 0 0 0 0 0 0 0 0 0
1 1 1 1 1 1 1 1 1 1 1 1 1 1 1 0 0 0 0 0 0 0 0 0 0 0 0 0 0 1 1 1 0 0 0 0 0 0 0 0 0 0 0
1 1 1 1 1 1 1 1 1 1 1 1 1 1 1 1 1 0 0 0 0 0 0 0 0 0 0 0 1 1 1 1 1 0 0 0 0 0 0 0 0 0 0
1 1 1 1 1 1 1 1 1 1 1 1 1 1 1 1 1 0 0 0 0 0 0 0 0 1 1 1 1 1 1 1 1 1 0 0 0 0 0 0 0 0 0
1 1 1 1 2 2 2 2 1 1 1 1 1 1 1 1 1 1 0 0 0 0 0 0 1 1 1 1 1 1 1 1 1 1 1 0 0 0 0 0 0 0 0
1 1 1 2 2 2 2 2 1 1 1 1 1 1 1 1 1 1 0 0 0 0 0 0 0 1 1 1 1 1 1 1 1 1 1 1 0 0 0 0 0 0 0
1 1 1 1 1 1 1 1 1 1 1 1 1 1 1 0 0 0 0 0 0 0 0 0 0 0 1 1 1 1 1 1 1 1 1 1 1 0 0 0 0 0 0
1 1 1 1 1 1 1 1 1 1 1 1 1 1 0 0 0 0 0 0 0 0 0 0 0 0 0 0 0 0 1 1 1 1 1 1 1 0 0 0 0 0 0
0 0 1 1 1 1 1 1 1 1 1 1 1 1 1 0 0 0 0 0 0 0 0 0 0 0 0 0 0 0 0 1 1 1 1 1 0 0 0 0 0 0 0
0 0 0 0 0 1 1 1 1 1 1 1 1 1 1 1 0 0 0 0 0 0 0 0 0 0 0 0 0 0 0 0 0 1 1 1 0 0 0 0 0 0 0
0 0 0 0 0 0 0 0 1 1 1 1 1 1 1 1 0 0 0 0 0 0 0 0 0 0 0 0 0 0 0 0 0 0 0 0 0 0 0 0 0 0 0
0 0 0 0 0 0 0 0 0 0 0 1 1 1 1 1 1 0 0 0 0 0 0 0 0 0 0 0 0 0 0 0 0 0 0 0 0 0 0 0 0 0 0
0 0 0 0 0 0 0 0 0 0 0 0 0 1 1 1 1 0 0 0 0 0 0 0 0 0 0 0 0 0 0 0 0 0 0 0 0 0 0 0 0 0 0
0 0 0 0 0 0 0 0 0 0 0 0 0 0 1 1 1 0 0 0 0 0 0 0 0 0 0 0 0 0 0 0 0 0 0 0 0 0 0 0 0 0 0
0 0 0 0 0 0 0 0 0 0 0 0 0 0 0 0 0 0 0 0 0 0 0 0 0 0 0 0 0 0 0 0 0 0 0 0 0 0 0 0 0 0 0
0 0 0 0 0 0 0 0 0 0 0 0 0 0 0 0 0 0 0 0 0 0 0 0 0 0 0 0 0 0 0 0 0 0 0 0 0 0 0 0 0 0 0
0 0 0 0 0 0 0 0 0 0 0 0 0 0 0 0 0 0 0 0 0 0 0 0 0 0 0 0 0 0 0 0 0 0 0 0 0 0 0 0 0 0 0
0 0 0 0 0 0 0 0 0 0 0 0 0 0 0 0 0 0 0 0 0 0 0 0 0 0 0 0 0 0 0 0 0 0 0 0 0 0 0 0 0 0 0
0 0 0 0 0 0 0 0 0 0 0 0 0 0 0 0 0 0 0 0 0 0 0 0 0 0 0 0 0 0 0 0 0 0 0 0 0 0 0 0 0 0 0
0 0 0 0 0 0 0 0 0 0 0 0 0 0 0 0 0 0 0 0 0 0 0 0 0 0 0 0 0 0 0 0 0 0 0 0 0 0 0 0 0 0 0
0 0 0 0 0 0 0 0 0 0 0 0 0 0 0 0 0 0 0 0 0 0 0 0 0 0 0 0 0 0 0 0 0 0 0 0 0 0 0 0 0 0 0
0 0 0 0 0 0 0 0 0 0 0 0 0 0 0 0 0 0 0 0 0 0 0 0 0 0 0 0 0 0 0 0 0 0 0 0 0 0 0 0 0 0 0
0 0 0 0 0 0 0 -0 0 0 0 0 0 0 0 0 0 0 0 0 0 0 0 0 0 0 0 0 0 0 0 0 0 0 0 0 0 0 0 0 0 0 0
0 0 0 0 0 0 0 -0 0 0 0 0 0 0 0 0 0 0 0 0 0 0 0 0 0 -0 0 0 0 0 0 0 0 0 0 0 0 0 0 0 0 0 0
0 0 0 0 0 0 0 -0 0 0 0 0 0 0 0 0 0 0 0 0 0 -0 -0 0 -0 -0 0 0 0 0 0 0 0 0 0 0 0 0 0 0 0 0 0
0 0 0 0 0 0 0 0 0 0 0 0 0 0 0 0 0 0 0 0 0 0 0 0 0 0 0 0 0 0 0 0 0 0 0 0 0 0 0 0 0 0 0
Wind_Speed
7 7 6 6 7 6 7 7 8 9 9 10 9 10 10 10 10 8 6 14 15 15 16 15 14 14 14 14 15 15 16 17 16 16 17 18 18 17 17 16 17 17 16
7 7 7 7 8 8 8 8 9 8 8 7 9 9 10 9 9 9 8 9 14 15 15 15 14 13 13 14 14 15 16 16 16 16 17 17 17 17 17 17 17 17 16
9 9 7 8 8 7 7 7 7 6 6 7 8 9 8 9 9 9 8 7 7 11 14 14 13 13 14 15 14 15 16 16 16 16 16 16 16 16 16 17 17 16 17
11 9 8 9 8 6 6 6 6 6 6 6 6 7 7 7 9 9 8 7 6 7 9 12 12 12 13 15 15 15 15 16 16 16 16 16 16 16 16 16 16 16 16
10 9 8 8 7 7 7 7 6 5 6 6 7 7 7 6 7 8 9 9 8 7 7 9 12 12 13 14 15 16 15 15 15 16 17 16 17 16 16 16 16 16 16
7 7 7 9 8 7 7 7 7 7 5 5 6 7 6 7 7 8 9 8 8 10 9 9 7 8 13 13 15 16 15 15 15 15 16 16 16 16 16 16 15 15 16
5 5 6 7 7 7 8 9 7 8 7 4 4 5 6 8 9 8 7 8 9 9 8 8 7 6 6 11 14 14 14 14 14 14 15 15 15 15 16 16 16 15 16
4 4 4 5 5 6 7 7 8 6 5 6 5 4 4 4 6 8 7 8 9 7 8 9 8 7 6 5 7 11 12 13 13 14 14 14 14 14 15 16 16 16 16
5 4 5 5 5 5 6 7 7 8 7 6 7 6 5 6 3 3 6 6 6 6 6 6 8 8 7 6 5 8 10 10 11 12 12 12 13 13 13 14 15 15 16
6 5 5 5 5 5 6 7 6 6 7 6 6 8 7 4 4 3 2 3 5 6 6 6 6 6 6 5 5 7 8 8 8 8 8 9 10 11 11 13 14 15 15
5 5 5 5 5 5 6 7 6 7 7 7 6 5 7 7 6 5 4 3 2 3 4 4 4 3 4 4 4 5 6 7 7 6 5 6 7 8 9 10 11 12 14
4 5 5 5 5 5 6 7 7 8 7 9 7 6 6 5 6 7 7 4 3 2 2 2 3 3 3 3 4 5 5 6 6 5 4 4 5 5 6 7 8 9 11
4 5 6 5 6 6 7 6 6 7 8 9 9 7 7 7 4 5 5 4 4 2 1 1 1 1 2 2 2 5 5 5 5 4 4 3 3 3 3 3 4 5 6
5 6 6 6 7 7 7 6 6 7 6 7 9 8 6 6 6 6 5 5 4 3 2 2 1 1 1 2 4 5 4 6 5 4 4 4 3 3 3 2 2 1 1
5 6 7 7 8 8 7 7 6 7 6 6 6 7 7 6 6 5 5 5 5 4 3 2 1 2 2 3 4 4 4 6 6 5 5 4 3 3 3 2 2 1 0
5 7 7 8 8 8 7 7 6 6 6 6 5 5 5 4 4 5 5 4 4 4 3 2 2 2 3 5 6 5 6 9 9 8 7 5 4 3 3 2 1 1 1
5 6 7 7 8 8 7 6 6 6 5 5 4 4 4 3 3 3 4 4 3 4 6 4 2 3 4 6 5 5 5 5 6 9 8 7 5 4 3 2 1 1 1
5 5 6 6 7 7 6 6 5 4 3 3 3 2 2 2 3 3 4 5 5 5 8 8 3 3 4 4 5 6 5 5 5 8 9 8 7 5 4 3 2 1 0
4 4 5 5 6 6 5 5 4 2 1 0 0 1 2 4 4 4 5 6 6 7 7 9 5 3 3 3 5 5 6 4 5 6 7 7 7 6 5 4 3 2 1
3 3 4 4 4 4 4 4 4 3 3 3 3 3 3 4 5 6 6 8 9 9 9 9 7 4 3 3 4 4 4 4 4 5 5 5 6 7 7 6 5 4 2
3 2 3 3 3 3 3 4 3 5 5 6 6 6 6 8 9 7 8 8 9 9 8 8 6 5 4 3 4 2 3 3 3 4 3 4 4 4 4 5 6 6 5
2 2 1 1 2 3 4 6 4 5 5 6 7 8 8 10 13 16 16 13 11 10 9 7 6 6 4 3 3 3 2 2 3 4 3 3 3 3 3 3 6 7 6
4 3 2 1 1 2 4 6 7 6 6 6 6 7 7 9 10 11 15 16 14 13 10 7 8 5 4 3 3 4 3 3 2 3 2 2 3 3 3 3 6 8 8
5 4 4 3 2 2 4 6 7 6 6 7 7 7 8 8 8 10 11 11 10 9 8 7 7 5 4 3 3 3 3 3 2 2 3 2 3 3 3 3 6 8 9
6 6 5 5 4 3 4 6 6 5 6 7 7 7 7 7 10 11 12 11 10 9 11 13 11 10 9 7 4 4 4 4 3 3 3 2 3 3 3 2 4 8 10
8 7 6 6 6 5 5 6 7 5 6 6 6 6 8 8 9 10 10 10 10 7 7 9 9 9 9 9 9 5 3 3 2 2 4 3 3 3 3 2 3 5 7
Wind_Direction
237 237 240 240 239 235 235 240 241 243 244 245 244 245 248 247 247 245 251 258 261 261 263 263 258 252 245 236 227 223 224 224 221 219 219 220 221 220 218 217 214 212 210
237 238 239 239 239 236 233 233 236 240 242 243 245 243 244 246 247 245 244 254 258 260 263 264 260 253 248 241 230 223 222 224 223 220 219 221 221 220 219 217 216 213 211
235 237 238 239 239 235 234 234 238 239 244 244 247 247 244 243 244 245 245 246 252 257 260 263 259 250 245 243 237 229 223 221 220 220 219 219 219 219 219 218 216 213 211
237 237 240 242 239 232 228 228 229 232 238 242 248 250 244 238 240 241 243 244 243 250 253 255 257 252 244 242 241 236 229 222 218 219 219 218 218 217 218 217 216 213 211
241 237 242 245 240 234 231 230 226 223 236 241 245 248 245 243 242 244 241 241 238 238 242 248 249 250 246 241 241 239 234 225 220 218 218 218 218 216 215 215 215 212 209
253 244 245 247 241 236 232 226 227 219 224 233 253 260 251 244 238 237 242 244 240 239 239 242 242 244 242 238 239 240 235 228 223 220 218 217 217 215 213 213 212 212 209
273 261 259 255 243 239 236 228 225 226 222 202 228 257 255 244 241 239 238 241 243 242 238 236 235 235 237 234 235 237 235 229 223 221 220 216 215 214 212 211 210 210 209
297 288 271 266 258 254 253 242 228 227 222 197 201 221 260 263 244 239 232 234 238 234 237 237 233 231 230 227 229 231 233 228 223 221 219 215 214 213 211 211 209 208 208
309 296 288 282 273 262 260 251 237 230 230 216 204 203 214 233 252 252 236 235 232 229 233 235 236 233 228 225 224 226 224 223 220 220 217 214 212 209 210 210 210 209 209
310 310 308 303 291 279 270 264 251 242 237 235 217 218 223 203 206 248 248 238 236 236 234 234 235 231 225 218 216 213 213 202 201 207 210 205 204 202 204 208 210 211 210
306 312 312 309 302 291 280 271 264 251 242 239 227 214 223 225 221 226 245 234 234 240 235 232 232 226 217 206 208 205 199 186 181 183 182 185 190 194 201 207 213 215 214
302 311 314 308 301 294 289 282 271 258 250 247 240 224 211 208 208 213 226 223 222 229 231 228 230 219 207 198 195 180 174 166 162 161 157 161 174 184 192 204 216 222 223
304 311 314 307 301 293 288 282 275 265 254 250 245 236 226 222 205 202 213 218 215 205 208 218 232 202 178 155 150 145 132 133 136 138 144 145 156 170 182 194 212 226 235
292 299 305 303 300 295 289 280 272 266 258 251 249 244 234 226 215 207 201 194 199 194 195 188 64 84 120 117 114 114 115 118 122 126 124 125 138 154 162 165 175 198 238
293 303 306 305 303 299 292 284 272 267 262 255 251 245 237 224 214 209 201 195 188 187 189 162 117 66 93 96 100 106 107 107 108 105 108 118 127 138 146 150 158 166 177
296 306 309 310 308 305 299 288 277 267 259 255 248 243 235 220 208 201 194 190 187 168 153 116 99 87 88 92 87 97 95 91 83 83 85 94 107 121 132 142 154 173 195
296 303 307 310 310 310 307 298 282 271 257 252 245 233 228 204 192 183 171 164 156 140 131 109 78 75 81 92 83 82 87 84 78 73 74 78 85 94 105 114 126 152 199
291 300 308 312 315 318 318 313 300 288 263 251 240 215 212 174 154 153 152 146 138 131 130 126 101 74 73 89 87 81 76 78 79 72 68 67 68 73 78 77 77 69 354
289 307 313 316 321 325 331 335 323 321 337 346 175 140 139 140 135 132 128 125 121 116 114 119 110 81 72 72 82 75 69 58 66 64 62 60 56 57 59 55 50 39 3
271 299 309 314 323 335 346 356 9 27 47 55 60 72 86 116 129 126 119 117 115 111 109 112 110 95 79 64 81 80 69 50 45 35 36 43 45 48 46 40 34 27 8
248 275 304 324 339 359 11 21 48 61 59 60 61 63 70 89 101 108 113 113 114 113 113 112 111 102 87 77 76 71 83 68 54 29 17 26 28 34 35 32 29 19 5
229 238 282 336 9 29 34 48 64 79 70 67 66 63 67 75 85 87 92 97 109 118 117 113 112 111 101 91 87 87 86 71 50 14 10 10 18 23 20 29 19 12 5
203 209 208 167 82 47 61 68 72 79 76 74 74 72 75 77 84 92 89 86 84 90 104 119 119 117 113 116 112 92 81 80 72 360 358 7 358 360 1 16 11 7 0
197 200 193 178 151 113 99 89 86 81 77 72 72 79 87 86 91 99 97 88 80 73 84 95 105 104 106 110 101 103 104 96 80 38 13 13 347 341 339 354 8 7 1
197 196 187 177 168 163 140 117 105 95 87 76 69 72 90 95 99 104 102 98 90 80 76 83 85 87 87 86 96 95 81 80 63 32 17 13 344 331 328 340 354 359 354
201 193 187 180 179 176 165 144 125 114 103 95 80 70 77 98 106 109 112 113 108 101 99 88 75 67 69 65 60 70 94 92 78 42 11 5 358 352 343 338 337 349 352